LEGION 3

Last updated on Thu Oct 30 2025 00:02:32 GMT+0000 (Coordinated Universal Time)

1 60452U 24146A 25302.39842799 .00007256 00000+0 37780-3 0 9994 2 60452 44.9999 187.7973 0017405 324.1033 35.8676 15.16523173 67000
UTC large
Height (km)
Speed (km/s)
/
Latitude / Longitude
Inclination (degrees)
Orbital Period (minutes)
Azimuth
Elevation
Range (km)
Doppler Factor

Next 0 passes for location: London (51.5072 / 0.1276)

Sorry there are no passes over London.